| time (UTC) | temp F | wind direction | speed knots | gust knots | rain 1hr in | rain 24hr in | rain mn in | humidity % | barometer mb |
| 20260507085546 | 45 | 313 | 0.0 | 0.0 | 0.00 | 0.59 | 0.10 | 95 | 1006.1 |
| 20260507085044 | 45 | 313 | 0.0 | 0.0 | 0.00 | 0.59 | 0.10 | 95 | 1006.6 |
| 20260507084544 | 45 | 309 | 0.0 | 0.0 | 0.00 | 0.59 | 0.10 | 95 | 1006.3 |
| 20260507084043 | 45 | 308 | 0.0 | 0.0 | 0.00 | 0.59 | 0.10 | 95 | 1006.2 |
| 20260507083544 | 45 | 312 | 0.0 | 0.0 | 0.00 | 0.59 | 0.10 | 95 | 1005.9 |
| 20260507083042 | 46 | 313 | 0.0 | 0.0 | 0.00 | 0.59 | 0.10 | 95 | 1005.9 |
| 20260507082542 | 46 | 311 | 0.0 | 0.0 | 0.00 | 0.59 | 0.10 | 95 | 1006.2 |
| 20260507082041 | 46 | 311 | 0.0 | 0.0 | 0.00 | 0.59 | 0.10 | 95 | 1006.5 |
| 20260507081541 | 46 | 311 | 0.0 | 0.0 | 0.00 | 0.59 | 0.10 | 95 | 1006.3 |
| 20260507081038 | 46 | 307 | 0.0 | 0.0 | 0.00 | 0.59 | 0.10 | 95 | 1005.9 |
| 20260507080539 | 46 | 331 | 0.0 | 0.0 | 0.00 | 0.59 | 0.10 | 95 | 1005.9 |
| 20260507080038 | 46 | 336 | 0.0 | 0.0 | 0.00 | 0.59 | 0.10 | 95 | 1005.8 |
| 20260507075538 | 46 | 312 | 0.0 | 0.0 | 0.00 | 0.59 | 0.10 | 95 | 1005.8 |
| 20260507075040 | 46 | 61 | 0.0 | 0.0 | 0.00 | 0.59 | 0.10 | 95 | 1005.8 |
| 20260507074542 | 46 | 271 | 0.0 | 0.0 | 0.00 | 0.59 | 0.10 | 95 | 1005.8 |
| 20260507074034 | 47 | 297 | 0.0 | 0.0 | 0.00 | 0.59 | 0.10 | 96 | 1005.7 |
| 20260507073538 | 47 | 297 | 0.0 | 0.0 | 0.00 | 0.59 | 0.10 | 96 | 1005.8 |
| 20260507073039 | 47 | 320 | 0.0 | 0.0 | 0.00 | 0.59 | 0.10 | 96 | 1005.8 |
| 20260507072533 | 47 | 299 | 0.0 | 0.0 | 0.00 | 0.59 | 0.10 | 96 | 1005.7 |
| 20260507072033 | 47 | 299 | 0.0 | 0.0 | 0.00 | 0.59 | 0.10 | 96 | 1005.6 |
| 20260507071534 | 47 | 303 | 0.0 | 0.0 | 0.00 | 0.59 | 0.10 | 96 | 1005.7 |
| 20260507071030 | 47 | 284 | 0.0 | 0.0 | 0.00 | 0.59 | 0.10 | 96 | 1005.5 |
| 20260507070533 | 47 | 305 | 0.0 | 0.0 | 0.00 | 0.59 | 0.10 | 96 | 1005.4 |
| 20260507070031 | 48 | 248 | 0.0 | 0.0 | 0.00 | 0.59 | 0.10 | 96 | 1005.4 |
| 20260507065529 | 48 | 316 | 0.0 | 0.0 | 0.00 | 0.59 | 0.10 | 96 | 1005.3 |
| 20260507065029 | 48 | 317 | 0.0 | 0.0 | 0.00 | 0.59 | 0.10 | 96 | 1005.3 |
| 20260507064528 | 48 | 317 | 0.0 | 0.0 | 0.00 | 0.59 | 0.10 | 96 | 1005.3 |
| 20260507064028 | 48 | 317 | 0.0 | 0.0 | 0.00 | 0.59 | 0.10 | 96 | 1005.2 |
| 20260507063527 | 48 | 317 | 0.0 | 0.0 | 0.00 | 0.59 | 0.10 | 96 | 1005.1 |
| 20260507063039 | 48 | 317 | 0.0 | 0.0 | 0.00 | 0.59 | 0.10 | 96 | 1004.9 |
| 20260507062526 | 48 | 317 | 0.0 | 0.0 | 0.00 | 0.59 | 0.10 | 96 | 1004.9 |
| 20260507062025 | 48 | 317 | 0.0 | 0.0 | 0.00 | 0.59 | 0.10 | 96 | 1004.8 |
| 20260507061527 | 48 | 317 | 0.0 | 0.0 | 0.00 | 0.59 | 0.10 | 96 | 1004.9 |
| 20260507061024 | 48 | 317 | 0.0 | 0.0 | 0.01 | 0.59 | 0.10 | 96 | 1005.0 |
| 20260507060526 | 48 | 317 | 0.0 | 0.0 | 0.01 | 0.59 | 0.10 | 96 | 1005.0 |
| 20260507060040 | 48 | 317 | 0.0 | 0.0 | 0.01 | 0.59 | 0.10 | 96 | 1004.9 |
| 20260507055524 | 48 | 317 | 0.0 | 0.0 | 0.01 | 0.59 | 0.10 | 96 | 1004.9 |
| 20260507055023 | 49 | 317 | 0.0 | 0.0 | 0.01 | 0.59 | 0.10 | 96 | 1005.0 |
| 20260507054521 | 49 | 287 | 0.0 | 0.0 | 0.01 | 0.59 | 0.10 | 96 | 1005.0 |
| 20260507054021 | 49 | 327 | 0.0 | 0.0 | 0.01 | 0.59 | 0.10 | 96 | 1004.9 |
| 20260507053520 | 49 | 300 | 0.0 | 0.0 | 0.03 | 0.59 | 0.10 | 96 | 1004.9 |
| 20260507053019 | 50 | 313 | 0.0 | 0.0 | 0.04 | 0.59 | 0.10 | 97 | 1004.7 |
| 20260507052518 | 50 | 311 | 0.0 | 0.0 | 0.06 | 0.59 | 0.10 | 97 | 1004.9 |
| 20260507052018 | 50 | 327 | 0.0 | 0.0 | 0.08 | 0.59 | 0.10 | 96 | 1005.0 |
| 20260507051518 | 50 | 328 | 0.0 | 0.0 | 0.09 | 0.59 | 0.10 | 96 | 1004.9 |
| 20260507051016 | 50 | 294 | 0.0 | 0.0 | 0.09 | 0.57 | 0.09 | 97 | 1004.9 |
| 20260507050516 | 50 | 338 | 0.0 | 0.0 | 0.09 | 0.57 | 0.09 | 97 | 1005.0 |
| 20260507050014 | 51 | 318 | 0.0 | 0.0 | 0.09 | 0.57 | 0.09 | 97 | 1005.0 |
| 20260507045514 | 51 | 20 | 0.0 | 0.0 | 0.10 | 0.57 | 0.09 | 97 | 1004.7 |
| 20260507045013 | 51 | 315 | 0.0 | 0.0 | 0.10 | 0.57 | 0.09 | 97 | 1004.8 |
| 20260507044515 | 52 | 347 | 0.0 | 0.0 | 0.10 | 0.57 | 0.09 | 97 | 1005.0 |
| 20260507044012 | 52 | 327 | 0.0 | 0.0 | 0.09 | 0.56 | 0.08 | 97 | 1005.0 |
| 20260507043514 | 52 | 331 | 0.0 | 0.0 | 0.08 | 0.56 | 0.07 | 97 | 1004.7 |
| 20260507043012 | 52 | 290 | 0.0 | 0.0 | 0.07 | 0.55 | 0.06 | 98 | 1004.9 |
| 20260507042512 | 52 | 336 | 0.0 | 0.0 | 0.06 | 0.53 | 0.04 | 98 | 1005.0 |
| 20260507042010 | 52 | 307 | 0.0 | 0.0 | 0.05 | 0.51 | 0.02 | 97 | 1004.9 |
| 20260507041508 | 52 | 307 | 0.0 | 0.0 | 0.04 | 0.50 | 0.01 | 97 | 1004.7 |
| 20260507041008 | 52 | 307 | 0.0 | 0.0 | 0.03 | 0.49 | 0.00 | 97 | 1004.3 |
| 20260507040506 | 51 | 307 | 0.0 | 0.0 | 0.03 | 0.49 | 0.00 | 97 | 1004.2 |
| 20260507040006 | 51 | 307 | 0.0 | 0.0 | 0.03 | 0.49 | 0.49 | 98 | 1004.1 |
| 20260507035505 | 51 | 307 | 0.0 | 0.0 | 0.02 | 0.48 | 0.48 | 98 | 1004.1 |
| 20260507035005 | 51 | 309 | 0.0 | 0.0 | 0.02 | 0.48 | 0.48 | 97 | 1004.2 |
| 20260507034513 | 51 | 302 | 0.0 | 0.0 | 0.02 | 0.48 | 0.48 | 97 | 1004.3 |
| 20260507034007 | 51 | 163 | 0.0 | 0.0 | 0.02 | 0.48 | 0.48 | 97 | 1003.8 |
| 20260507033507 | 51 | 163 | 0.0 | 0.0 | 0.03 | 0.48 | 0.48 | 97 | 1003.8 |
| 20260507033004 | 51 | 163 | 0.0 | 0.0 | 0.03 | 0.48 | 0.48 | 97 | 1003.8 |
| 20260507032504 | 51 | 163 | 0.0 | 0.0 | 0.02 | 0.47 | 0.47 | 97 | 1003.8 |
| 20260507032005 | 51 | 163 | 0.0 | 0.0 | 0.01 | 0.46 | 0.46 | 97 | 1003.9 |
| 20260507031504 | 50 | 163 | 0.0 | 0.0 | 0.01 | 0.46 | 0.46 | 97 | 1003.9 |
| 20260507031004 | 50 | 163 | 0.0 | 0.0 | 0.01 | 0.46 | 0.46 | 97 | 1003.9 |
| 20260507030503 | 50 | 163 | 0.0 | 0.0 | 0.01 | 0.46 | 0.46 | 97 | 1003.8 |
| 20260507030005 | 50 | 163 | 0.0 | 0.0 | 0.01 | 0.46 | 0.46 | 97 | 1003.9 |
| 20260507025502 | 50 | 163 | 0.0 | 0.0 | 0.01 | 0.46 | 0.46 | 97 | 1003.9 |
| 20260507025001 | 50 | 163 | 0.0 | 0.0 | 0.02 | 0.46 | 0.46 | 97 | 1004.0 |
| 20260507024501 | 50 | 163 | 0.0 | 0.0 | 0.02 | 0.46 | 0.46 | 97 | 1004.1 |
| 20260507024002 | 50 | 163 | 0.0 | 0.0 | 0.03 | 0.46 | 0.46 | 97 | 1004.1 |
| 20260507023600 | 50 | 163 | 0.0 | 0.0 | 0.02 | 0.45 | 0.45 | 97 | 1004.0 |
| 20260507023101 | 50 | 163 | 0.0 | 0.0 | 0.03 | 0.45 | 0.45 | 97 | 1004.1 |
| 20260507022601 | 50 | 167 | 0.0 | 0.0 | 0.03 | 0.45 | 0.45 | 97 | 1004.2 |
| 20260507022100 | 50 | 174 | 0.0 | 0.0 | 0.04 | 0.45 | 0.45 | 97 | 1004.2 |
| 20260507021600 | 50 | 170 | 0.0 | 0.0 | 0.04 | 0.45 | 0.45 | 97 | 1004.3 |
| 20260507021058 | 50 | 194 | 0.0 | 0.0 | 0.04 | 0.45 | 0.45 | 97 | 1004.3 |
| 20260507020600 | 50 | 211 | 0.0 | 0.0 | 0.05 | 0.45 | 0.45 | 97 | 1004.4 |
| 20260507020058 | 51 | 200 | 0.0 | 0.0 | 0.05 | 0.45 | 0.45 | 97 | 1004.4 |
| 20260507015556 | 51 | 196 | 0.0 | 0.0 | 0.05 | 0.45 | 0.45 | 97 | 1004.5 |
| 20260507015055 | 51 | 157 | 0.0 | 0.0 | 0.04 | 0.44 | 0.44 | 97 | 1004.6 |
| 20260507014558 | 51 | 200 | 0.0 | 0.0 | 0.04 | 0.44 | 0.44 | 97 | 1004.7 |
| 20260507014056 | 51 | 264 | 0.0 | 0.0 | 0.03 | 0.43 | 0.43 | 97 | 1004.7 |
| 20260507013554 | 51 | 171 | 0.0 | 0.0 | 0.02 | 0.42 | 0.42 | 97 | 1004.7 |
| 20260507013110 | 51 | 153 | 0.0 | 0.0 | 0.02 | 0.42 | 0.42 | 97 | 1004.8 |
| 20260507012556 | 50 | 171 | 0.0 | 0.0 | 0.02 | 0.42 | 0.42 | 97 | 1004.8 |
| 20260507012053 | 50 | 113 | 0.0 | 0.0 | 0.01 | 0.41 | 0.41 | 97 | 1004.9 |
| 20260507011552 | 50 | 134 | 0.0 | 0.0 | 0.01 | 0.41 | 0.41 | 97 | 1005.0 |
| 20260507011052 | 50 | 163 | 0.0 | 0.0 | 0.01 | 0.41 | 0.41 | 97 | 1005.0 |
| 20260507010552 | 50 | 240 | 0.0 | 0.0 | 0.00 | 0.40 | 0.40 | 96 | 1005.0 |
| 20260507005552 | 51 | 210 | 0.0 | 0.0 | 0.00 | 0.40 | 0.40 | 96 | 1005.0 |
| 20260507005050 | 51 | 142 | 0.0 | 0.0 | 0.00 | 0.40 | 0.40 | 96 | 1005.1 |
| 20260507004552 | 51 | 184 | 0.0 | 0.0 | 0.00 | 0.40 | 0.40 | 96 | 1005.1 |
| 20260507004055 | 51 | 243 | 0.0 | 0.9 | 0.00 | 0.40 | 0.40 | 96 | 1005.2 |
| 20260507003552 | 51 | 157 | 0.0 | 1.7 | 0.00 | 0.40 | 0.40 | 96 | 1005.2 |
| 20260507003050 | 51 | 198 | 0.0 | 1.7 | 0.00 | 0.40 | 0.40 | 96 | 1005.1 |
| 20260507002550 | 51 | 184 | 0.0 | 0.9 | 0.00 | 0.40 | 0.40 | 96 | 1005.1 |
| 20260507002050 | 51 | 211 | 0.0 | 0.0 | 0.00 | 0.40 | 0.40 | 96 | 1005.2 |
| 20260507001552 | 51 | 229 | 0.0 | 1.7 | 0.00 | 0.40 | 0.40 | 96 | 1005.3 |
| 20260507001049 | 51 | 360 | 0.0 | 1.7 | 0.01 | 0.40 | 0.40 | 97 | 1005.2 |
| 20260507000552 | 51 | 184 | 0.0 | 1.7 | 0.01 | 0.40 | 0.40 | 97 | 1005.1 |
| 20260507000049 | 51 | 145 | 0.0 | 0.9 | 0.01 | 0.40 | 0.40 | 96 | 1005.2 |
| 20260506235549 | 51 | 159 | 0.0 | 0.9 | 0.01 | 0.40 | 0.40 | 97 | 1005.2 |
| 20260506235048 | 51 | 178 | 0.0 | 0.9 | 0.01 | 0.40 | 0.40 | 96 | 1005.1 |
| 20260506234549 | 51 | 165 | 0.0 | 1.7 | 0.01 | 0.40 | 0.40 | 96 | 1005.2 |
| 20260506234047 | 51 | 164 | 0.0 | 1.7 | 0.01 | 0.40 | 0.40 | 96 | 1005.3 |
| 20260506233551 | 51 | 159 | 0.0 | 0.9 | 0.01 | 0.40 | 0.40 | 96 | 1005.3 |
| 20260506233100 | 51 | 123 | 0.0 | 1.7 | 0.02 | 0.40 | 0.40 | 96 | 1005.4 |
| 20260506232546 | 52 | 140 | 0.0 | 1.7 | 0.02 | 0.40 | 0.40 | 96 | 1005.4 |
| 20260506232046 | 52 | 215 | 0.0 | 0.9 | 0.02 | 0.40 | 0.40 | 96 | 1005.4 |
| 20260506231547 | 52 | 133 | 0.0 | 0.9 | 0.02 | 0.40 | 0.40 | 96 | 1005.3 |
| 20260506231048 | 52 | 164 | 0.0 | 0.0 | 0.01 | 0.39 | 0.39 | 96 | 1005.4 |
| 20260506230545 | 52 | 184 | 0.0 | 0.9 | 0.01 | 0.39 | 0.39 | 96 | 1005.4 |
| 20260506230048 | 52 | 170 | 0.0 | 0.9 | 0.01 | 0.39 | 0.39 | 96 | 1005.5 |
| 20260506225548 | 52 | 264 | 0.0 | 0.9 | 0.02 | 0.39 | 0.39 | 96 | 1005.5 |
| 20260506225044 | 52 | 182 | 0.0 | 0.9 | 0.02 | 0.39 | 0.39 | 96 | 1005.6 |
| 20260506224545 | 52 | 168 | 0.0 | 1.7 | 0.02 | 0.39 | 0.39 | 96 | 1005.6 |
| 20260506224044 | 52 | 207 | 0.0 | 1.7 | 0.03 | 0.39 | 0.39 | 96 | 1005.6 |
| 20260506223544 | 52 | 134 | 0.0 | 1.7 | 0.03 | 0.39 | 0.39 | 96 | 1005.7 |
| 20260506223043 | 52 | 161 | 0.0 | 0.9 | 0.02 | 0.38 | 0.38 | 96 | 1005.8 |
| 20260506222543 | 52 | 232 | 0.0 | 2.6 | 0.03 | 0.38 | 0.38 | 96 | 1005.8 |
| 20260506222042 | 52 | 125 | 0.0 | 5.2 | 0.04 | 0.38 | 0.38 | 96 | 1005.9 |
| 20260506221547 | 52 | 72 | 0.0 | 5.2 | 0.06 | 0.38 | 0.38 | 96 | 1005.9 |
| 20260506221041 | 52 | 90 | 0.0 | 0.9 | 0.07 | 0.38 | 0.38 | 96 | 1006.0 |
| 20260506220543 | 51 | 240 | 0.0 | 0.9 | 0.08 | 0.38 | 0.38 | 96 | 1006.0 |
| 20260506220042 | 51 | 193 | 0.0 | 0.0 | 0.09 | 0.38 | 0.38 | 96 | 1006.0 |
| 20260506215543 | 51 | 265 | 0.0 | 0.0 | 0.08 | 0.37 | 0.37 | 96 | 1006.0 |
| 20260506215040 | 51 | 223 | 0.0 | 0.0 | 0.09 | 0.37 | 0.37 | 96 | 1006.0 |
| 20260506214540 | 51 | 315 | 0.0 | 0.0 | 0.10 | 0.37 | 0.37 | 96 | 1006.0 |
| 20260506214041 | 51 | 227 | 0.0 | 0.9 | 0.09 | 0.36 | 0.36 | 96 | 1006.1 |
| 20260506213540 | 51 | 163 | 0.0 | 0.9 | 0.10 | 0.36 | 0.36 | 95 | 1006.2 |
| 20260506213038 | 51 | 215 | 0.0 | 0.9 | 0.10 | 0.36 | 0.36 | 95 | 1006.2 |
| 20260506212539 | 51 | 211 | 0.0 | 3.5 | 0.09 | 0.35 | 0.35 | 95 | 1006.2 |
| 20260506212041 | 51 | 212 | 0.0 | 3.5 | 0.08 | 0.33 | 0.33 | 95 | 1006.3 |
| 20260506211537 | 52 | 182 | 0.0 | 0.9 | 0.07 | 0.32 | 0.32 | 95 | 1006.4 |
| 20260506211037 | 52 | 130 | 0.0 | 0.9 | 0.07 | 0.31 | 0.31 | 95 | 1006.4 |
| 20260506210538 | 52 | 159 | 0.0 | 0.0 | 0.07 | 0.30 | 0.30 | 95 | 1006.5 |
| 20260506210038 | 52 | 320 | 0.0 | 0.0 | 0.11 | 0.28 | 0.28 | 95 | 1006.4 |
| 20260506205542 | 52 | 161 | 0.0 | 0.0 | 0.12 | 0.28 | 0.28 | 95 | 1006.4 |
| 20260506205036 | 52 | 160 | 0.0 | 0.0 | 0.13 | 0.28 | 0.28 | 95 | 1006.4 |
| 20260506204538 | 52 | 166 | 0.0 | 0.0 | 0.14 | 0.27 | 0.27 | 95 | 1006.4 |
| 20260506204036 | 52 | 161 | 0.0 | 0.0 | 0.15 | 0.27 | 0.27 | 95 | 1006.4 |
| 20260506203537 | 52 | 155 | 0.0 | 0.0 | 0.15 | 0.26 | 0.26 | 95 | 1006.3 |
| 20260506203037 | 52 | 177 | 0.0 | 0.0 | 0.15 | 0.26 | 0.26 | 95 | 1006.2 |
| 20260506202536 | 52 | 184 | 0.0 | 0.0 | 0.17 | 0.26 | 0.26 | 95 | 1006.5 |
| 20260506202036 | 52 | 169 | 0.0 | 0.0 | 0.18 | 0.25 | 0.25 | 95 | 1006.4 |
| 20260506201536 | 52 | 165 | 0.0 | 0.0 | 0.21 | 0.25 | 0.25 | 95 | 1006.4 |
| 20260506201035 | 52 | 150 | 0.0 | 0.0 | 0.21 | 0.24 | 0.24 | 95 | 1006.6 |
| 20260506200534 | 52 | 175 | 0.0 | 0.0 | 0.20 | 0.22 | 0.22 | 95 | 1006.7 |
| 20260506200041 | 52 | 207 | 0.0 | 0.0 | 0.17 | 0.18 | 0.18 | 95 | 1006.8 |
| 20260506195636 | 52 | 191 | 0.0 | 0.0 | 0.16 | 0.17 | 0.17 | 95 | 1006.9 |
| 20260506195033 | 52 | 142 | 0.0 | 0.0 | 0.15 | 0.15 | 0.15 | 95 | 1006.9 |
| 20260506194534 | 52 | 209 | 0.0 | 0.0 | 0.13 | 0.13 | 0.13 | 95 | 1006.8 |
| 20260506194033 | 52 | 209 | 0.0 | 0.0 | 0.12 | 0.12 | 0.12 | 94 | 1006.8 |
| 20260506193532 | 52 | 210 | 0.0 | 0.0 | 0.11 | 0.11 | 0.11 | 94 | 1006.9 |
| 20260506193032 | 52 | 164 | 0.0 | 0.0 | 0.11 | 0.11 | 0.11 | 94 | 1007.1 |
| 20260506192532 | 52 | 160 | 0.0 | 0.0 | 0.09 | 0.09 | 0.09 | 94 | 1007.1 |
| 20260506192032 | 52 | 227 | 0.0 | 0.0 | 0.07 | 0.07 | 0.07 | 93 | 1007.3 |
| 20260506191531 | 52 | 110 | 0.0 | 0.0 | 0.04 | 0.04 | 0.04 | 93 | 1007.0 |
| 20260506191030 | 52 | 169 | 0.0 | 3.5 | 0.03 | 0.03 | 0.03 | 93 | 1006.8 |
| 20260506190530 | 52 | 196 | 0.0 | 3.5 | 0.02 | 0.02 | 0.02 | 92 | 1006.7 |
| 20260506190030 | 52 | 258 | 0.0 | 2.6 | 0.01 | 0.01 | 0.01 | 92 | 1006.7 |
| 20260506185529 | 53 | 263 | 0.0 | 2.6 | 0.00 | 0.00 | 0.00 | 92 | 1006.8 |
| 20260506185027 | 53 | 241 | 0.0 | 0.0 | 0.00 | 0.00 | 0.00 | 91 | 1006.9 |
| 20260506184528 | 53 | 127 | 0.0 | 0.9 | 0.00 | 0.00 | 0.00 | 91 | 1006.9 |
| 20260506184032 | 53 | 157 | 0.0 | 0.9 | 0.00 | 0.00 | 0.00 | 91 | 1006.9 |
| 20260506183527 | 53 | 198 | 0.0 | 0.9 | 0.00 | 0.00 | 0.00 | 90 | 1006.8 |
| 20260506183033 | 54 | 208 | 0.0 | 0.9 | 0.00 | 0.00 | 0.00 | 90 | 1006.9 |
| 20260506182527 | 54 | 129 | 0.0 | 0.9 | 0.00 | 0.00 | 0.00 | 88 | 1007.0 |
| 20260506182026 | 54 | 116 | 0.0 | 0.9 | 0.00 | 0.00 | 0.00 | 87 | 1007.0 |
| 20260506181525 | 54 | 109 | 0.0 | 0.9 | 0.00 | 0.00 | 0.00 | 87 | 1006.9 |
| 20260506181027 | 54 | 121 | 0.0 | 0.9 | 0.00 | 0.00 | 0.00 | 87 | 1006.9 |
| 20260506180525 | 54 | 221 | 0.0 | 0.9 | 0.00 | 0.00 | 0.00 | 87 | 1007.0 |
| 20260506180026 | 54 | 169 | 0.0 | 0.9 | 0.00 | 0.00 | 0.00 | 86 | 1007.0 |
| 20260506175525 | 54 | 167 | 0.0 | 0.9 | 0.00 | 0.00 | 0.00 | 87 | 1007.1 |
| 20260506175024 | 54 | 86 | 0.0 | 0.9 | 0.00 | 0.00 | 0.00 | 87 | 1007.1 |
| 20260506174523 | 54 | 232 | 0.0 | 0.9 | 0.00 | 0.00 | 0.00 | 87 | 1007.3 |
| 20260506174023 | 54 | 198 | 0.0 | 0.9 | 0.00 | 0.00 | 0.00 | 87 | 1007.3 |
| 20260506173522 | 54 | 173 | 0.0 | 0.9 | 0.00 | 0.00 | 0.00 | 87 | 1007.4 |
| 20260506173024 | 54 | 215 | 0.0 | 0.0 | 0.00 | 0.00 | 0.00 | 87 | 1007.5 |
| 20260506172521 | 55 | 51 | 0.0 | 0.0 | 0.00 | 0.00 | 0.00 | 86 | 1007.6 |
| 20260506172020 | 55 | 196 | 0.0 | 0.0 | 0.00 | 0.00 | 0.00 | 85 | 1007.7 |
| 20260506171519 | 55 | 167 | 0.0 | 0.0 | 0.00 | 0.00 | 0.00 | 86 | 1007.7 |
| 20260506171021 | 56 | 256 | 0.0 | 0.0 | 0.00 | 0.00 | 0.00 | 85 | 1007.7 |
| 20260506170519 | 56 | 128 | 0.0 | 0.0 | 0.00 | 0.00 | 0.00 | 85 | 1007.9 |
| 20260506170017 | 56 | 180 | 0.0 | 0.0 | 0.00 | 0.00 | 0.00 | 85 | 1007.9 |
| 20260506165518 | 56 | 162 | 0.0 | 0.9 | 0.00 | 0.00 | 0.00 | 85 | 1008.1 |
| 20260506165017 | 56 | 161 | 0.0 | 0.9 | 0.00 | 0.00 | 0.00 | 85 | 1008.2 |
| 20260506164516 | 56 | 164 | 0.0 | 0.0 | 0.00 | 0.00 | 0.00 | 85 | 1008.2 |
| 20260506164016 | 56 | 159 | 0.0 | 0.0 | 0.00 | 0.00 | 0.00 | 86 | 1008.2 |
| 20260506163516 | 56 | 167 | 0.0 | 0.0 | 0.00 | 0.00 | 0.00 | 86 | 1008.3 |
| 20260506163019 | 56 | 232 | 0.0 | 0.0 | 0.00 | 0.00 | 0.00 | 85 | 1008.6 |
| 20260506162515 | 57 | 200 | 0.0 | 0.0 | 0.00 | 0.00 | 0.00 | 85 | 1008.7 |
| 20260506162015 | 57 | 123 | 0.0 | 0.0 | 0.00 | 0.00 | 0.00 | 85 | 1008.7 |
| 20260506161515 | 56 | 143 | 0.0 | 0.0 | 0.00 | 0.00 | 0.00 | 85 | 1008.7 |
| 20260506161014 | 56 | 170 | 0.0 | 0.0 | 0.00 | 0.00 | 0.00 | 85 | 1008.9 |
| 20260506160517 | 56 | 182 | 0.0 | 0.0 | 0.00 | 0.00 | 0.00 | 85 | 1009.0 |
| 20260506160018 | 56 | 94 | 0.0 | 0.0 | 0.00 | 0.00 | 0.00 | 85 | 1009.1 |
| 20260506155518 | 57 | 148 | 0.0 | 0.0 | 0.00 | 0.00 | 0.00 | 85 | 1009.0 |
| 20260506155015 | 57 | 196 | 0.0 | 0.0 | 0.00 | 0.00 | 0.00 | 85 | 1009.1 |
| 20260506154516 | 56 | 213 | 0.0 | 0.0 | 0.00 | 0.00 | 0.00 | 85 | 1009.1 |
| 20260506154014 | 56 | 173 | 0.0 | 0.0 | 0.00 | 0.00 | 0.00 | 85 | 1009.2 |
| 20260506153513 | 57 | 121 | 0.0 | 0.0 | 0.00 | 0.00 | 0.00 | 85 | 1009.3 |
| 20260506153014 | 57 | 236 | 0.0 | 0.0 | 0.00 | 0.00 | 0.00 | 84 | 1009.3 |
| 20260506152513 | 57 | 177 | 0.0 | 0.0 | 0.00 | 0.00 | 0.00 | 85 | 1009.2 |
| 20260506152014 | 57 | 173 | 0.0 | 0.9 | 0.00 | 0.00 | 0.00 | 85 | 1009.1 |
| 20260506151513 | 57 | 165 | 0.0 | 0.9 | 0.00 | 0.00 | 0.00 | 85 | 1009.2 |
| 20260506151013 | 57 | 118 | 0.0 | 0.0 | 0.00 | 0.00 | 0.00 | 85 | 1009.2 |
| 20260506150513 | 57 | 184 | 0.0 | 0.0 | 0.00 | 0.00 | 0.00 | 85 | 1009.1 |
| 20260506150015 | 57 | 211 | 0.0 | 0.0 | 0.00 | 0.00 | 0.00 | 85 | 1009.0 |
| 20260506145515 | 57 | 217 | 0.0 | 0.0 | 0.00 | 0.00 | 0.00 | 85 | 1008.9 |
| 20260506145013 | 57 | 248 | 0.0 | 0.9 | 0.00 | 0.00 | 0.00 | 85 | 1008.7 |
| 20260506144512 | 57 | 212 | 0.0 | 0.9 | 0.00 | 0.00 | 0.00 | 85 | 1008.6 |
| 20260506144012 | 57 | 77 | 0.0 | 0.0 | 0.00 | 0.00 | 0.00 | 85 | 1008.6 |
| 20260506143512 | 57 | 223 | 0.0 | 0.0 | 0.00 | 0.00 | 0.00 | 85 | 1008.7 |
| 20260506143011 | 57 | 178 | 0.0 | 0.0 | 0.00 | 0.00 | 0.00 | 86 | 1008.6 |
| 20260506142513 | 57 | 182 | 0.0 | 0.0 | 0.00 | 0.00 | 0.00 | 86 | 1008.8 |
| 20260506142011 | 57 | 159 | 0.0 | 0.0 | 0.00 | 0.00 | 0.00 | 85 | 1009.0 |
| 20260506141510 | 56 | 137 | 0.0 | 0.0 | 0.00 | 0.00 | 0.00 | 86 | 1009.1 |
| 20260506141013 | 56 | 171 | 0.0 | 0.0 | 0.00 | 0.00 | 0.00 | 86 | 1009.3 |
| 20260506140511 | 56 | 146 | 0.0 | 0.0 | 0.00 | 0.00 | 0.00 | 86 | 1009.4 |
| 20260506140011 | 56 | 202 | 0.0 | 0.0 | 0.00 | 0.00 | 0.00 | 86 | 1009.4 |
| 20260506135510 | 56 | 155 | 0.0 | 0.0 | 0.00 | 0.00 | 0.00 | 86 | 1009.4 |
| 20260506135010 | 56 | 119 | 0.0 | 0.0 | 0.00 | 0.00 | 0.00 | 86 | 1009.4 |
| 20260506134510 | 56 | 119 | 0.0 | 0.0 | 0.00 | 0.00 | 0.00 | 86 | 1009.4 |
| 20260506134010 | 56 | 212 | 0.0 | 0.0 | 0.00 | 0.00 | 0.00 | 86 | 1009.4 |
| 20260506133509 | 56 | 211 | 0.0 | 0.0 | 0.00 | 0.00 | 0.00 | 86 | 1009.3 |
| 20260506133012 | 56 | 215 | 0.0 | 0.9 | 0.00 | 0.00 | 0.00 | 85 | 1009.1 |
| 20260506132512 | 57 | 175 | 0.0 | 0.9 | 0.00 | 0.00 | 0.00 | 85 | 1009.1 |
| 20260506132013 | 57 | 175 | 0.0 | 0.9 | 0.00 | 0.00 | 0.00 | 84 | 1009.1 |
| 20260506131513 | 57 | 200 | 0.0 | 0.0 | 0.00 | 0.00 | 0.00 | 85 | 1009.0 |
| 20260506131010 | 57 | 200 | 0.0 | 0.0 | 0.00 | 0.00 | 0.00 | 84 | 1008.9 |
| 20260506130511 | 57 | 159 | 0.0 | 0.0 | 0.00 | 0.00 | 0.00 | 86 | 1009.0 |
| 20260506130013 | 57 | 155 | 0.0 | 0.0 | 0.00 | 0.00 | 0.00 | 86 | 1008.9 |
| 20260506125508 | 57 | 152 | 0.0 | 0.0 | 0.00 | 0.00 | 0.00 | 86 | 1009.0 |
| 20260506125005 | 56 | 184 | 0.0 | 0.0 | 0.00 | 0.00 | 0.00 | 86 | 1009.0 |
| 20260506124505 | 56 | 144 | 0.0 | 0.0 | 0.00 | 0.00 | 0.00 | 87 | 1009.2 |
| 20260506124003 | 55 | 144 | 0.0 | 0.0 | 0.00 | 0.00 | 0.00 | 88 | 1009.2 |
| 20260506123503 | 55 | 144 | 0.0 | 0.0 | 0.00 | 0.00 | 0.00 | 87 | 1009.2 |
| 20260506123002 | 55 | 112 | 0.0 | 0.0 | 0.00 | 0.00 | 0.00 | 88 | 1009.3 |
| 20260506122502 | 54 | 112 | 0.0 | 0.0 | 0.00 | 0.00 | 0.00 | 88 | 1009.3 |
| 20260506122100 | 54 | 112 | 0.0 | 0.0 | 0.00 | 0.00 | 0.00 | 87 | 1009.3 |
| 20260506121613 | 54 | 112 | 0.0 | 0.0 | 0.00 | 0.00 | 0.00 | 88 | 1009.5 |
| 20260506121059 | 54 | 103 | 0.0 | 0.0 | 0.00 | 0.00 | 0.00 | 88 | 1009.4 |
| 20260506120558 | 54 | 103 | 0.0 | 0.0 | 0.00 | 0.00 | 0.00 | 88 | 1009.4 |
| 20260506120119 | 54 | 103 | 0.0 | 0.0 | 0.00 | 0.00 | 0.00 | 88 | 1009.6 |
| 20260506115557 | 53 | 103 | 0.0 | 0.0 | 0.00 | 0.00 | 0.00 | 88 | 1009.5 |
| 20260506115056 | 53 | 103 | 0.0 | 0.0 | 0.00 | 0.00 | 0.00 | 88 | 1009.6 |
| 20260506114557 | 53 | 103 | 0.0 | 0.0 | 0.00 | 0.00 | 0.00 | 89 | 1009.4 |
| 20260506114055 | 53 | 103 | 0.0 | 0.0 | 0.00 | 0.00 | 0.00 | 89 | 1009.8 |
| 20260506113555 | 53 | 103 | 0.0 | 0.0 | 0.00 | 0.00 | 0.00 | 89 | 1009.8 |
| 20260506113103 | 53 | 103 | 0.0 | 0.0 | 0.00 | 0.00 | 0.00 | 89 | 1009.7 |
| 20260506112554 | 52 | 103 | 0.0 | 0.0 | 0.00 | 0.00 | 0.00 | 90 | 1009.9 |
| 20260506112054 | 52 | 103 | 0.0 | 0.0 | 0.00 | 0.00 | 0.00 | 90 | 1010.1 |
| 20260506111554 | 52 | 103 | 0.0 | 0.0 | 0.00 | 0.00 | 0.00 | 90 | 1010.0 |
| 20260506111053 | 52 | 103 | 0.0 | 0.0 | 0.00 | 0.00 | 0.00 | 90 | 1009.9 |
| 20260506110552 | 51 | 103 | 0.0 | 0.0 | 0.00 | 0.00 | 0.00 | 90 | 1009.9 |
| 20260506110054 | 51 | 103 | 0.0 | 0.0 | 0.00 | 0.00 | 0.00 | 90 | 1009.8 |
| 20260506105552 | 51 | 103 | 0.0 | 0.0 | 0.00 | 0.00 | 0.00 | 90 | 1009.8 |
| 20260506105051 | 51 | 103 | 0.0 | 0.0 | 0.00 | 0.00 | 0.00 | 90 | 1009.8 |
| 20260506104552 | 51 | 103 | 0.0 | 0.0 | 0.00 | 0.00 | 0.00 | 90 | 1009.9 |
| 20260506104050 | 51 | 103 | 0.0 | 0.0 | 0.00 | 0.00 | 0.00 | 90 | 1009.7 |
| 20260506103552 | 51 | 103 | 0.0 | 0.0 | 0.00 | 0.00 | 0.00 | 90 | 1009.7 |
| 20260506103053 | 51 | 103 | 0.0 | 0.0 | 0.00 | 0.00 | 0.00 | 90 | 1009.6 |
| 20260506102550 | 51 | 155 | 0.0 | 0.0 | 0.00 | 0.00 | 0.00 | 90 | 1009.5 |
| 20260506102052 | 50 | 155 | 0.0 | 0.0 | 0.00 | 0.00 | 0.00 | 91 | 1009.7 |
| 20260506101550 | 50 | 155 | 0.0 | 0.0 | 0.00 | 0.00 | 0.00 | 91 | 1009.6 |
| 20260506101049 | 50 | 155 | 0.0 | 0.0 | 0.00 | 0.00 | 0.00 | 91 | 1009.4 |
| 20260506100548 | 50 | 155 | 0.0 | 0.0 | 0.00 | 0.00 | 0.00 | 91 | 1009.5 |
| 20260506100048 | 50 | 155 | 0.0 | 0.0 | 0.00 | 0.00 | 0.00 | 90 | 1009.6 |
| 20260506095549 | 50 | 155 | 0.0 | 0.0 | 0.00 | 0.00 | 0.00 | 90 | 1009.5 |
| 20260506095048 | 50 | 155 | 0.0 | 0.0 | 0.00 | 0.00 | 0.00 | 89 | 1009.6 |
| 20260506094549 | 50 | 155 | 0.0 | 0.0 | 0.00 | 0.00 | 0.00 | 89 | 1009.6 |
| 20260506094046 | 50 | 155 | 0.0 | 0.0 | 0.00 | 0.00 | 0.00 | 89 | 1009.6 |
| 20260506093546 | 50 | 155 | 0.0 | 0.0 | 0.00 | 0.00 | 0.00 | 89 | 1009.6 |
| 20260506093050 | 50 | 155 | 0.0 | 0.0 | 0.00 | 0.00 | 0.00 | 89 | 1009.7 |
| 20260506092547 | 50 | 155 | 0.0 | 0.0 | 0.00 | 0.00 | 0.00 | 89 | 1009.6 |
| 20260506092045 | 51 | 155 | 0.0 | 0.0 | 0.00 | 0.00 | 0.00 | 89 | 1009.4 |
| 20260506091545 | 51 | 155 | 0.0 | 0.0 | 0.00 | 0.00 | 0.00 | 89 | 1009.4 |
| 20260506091043 | 51 | 155 | 0.0 | 0.0 | 0.00 | 0.00 | 0.00 | 88 | 1009.4 |
| 20260506090542 | 51 | 155 | 0.0 | 0.0 | 0.00 | 0.00 | 0.00 | 88 | 1009.2 |
| 20260506090043 | 51 | 155 | 0.0 | 0.0 | 0.00 | 0.00 | 0.00 | 88 | 1009.1 |